[[{"header":{"parameterUnit":"m.s-1","parameterCategory":1,"la1":30.2991,"la2":30.254,"lo1":-89.0895,"lo2":-89.0444,"dy":0.0017,"dx":0.0017,"nx":28,"ny":28,"refTime":"2023-09-01T09:00:00:Z","depth":0,"parameterNumber":2,"parameterNumberName":"U-component_of_WINDS"},"data":[0,0,0,0,0,0,0,0,0,0,0,0,0,0,0,0,0,0,0,0,0,0,0,0,0,0,0,0,0,0,0,0,0,0,0,0,0,0,0,0,0,0,0,0,0,0,0,0,0,0,0,0,0,0,0,0,0,0,-1.646,-1.646,0,-1.6435,-1.6435,-1.6435,-1.6372,-1.6371,-1.6369,-1.6368,-1.6344,-1.6344,-1.6345,0,0,0,0,0,0,0,0,0,0,0,0,0,-1.6455,-1.6456,-1.646,-1.646,-1.646,-1.6435,-1.6435,-1.6435,-1.6372,-1.637,-1.6369,-1.6367,-1.6344,-1.6344,-1.6345,0,0,0,0,0,0,0,0,0,0,0,0,0,-1.6447,-1.6456,-1.6461,-1.6426,-1.6422,-1.6435,-1.6435,-1.6435,-1.6372,-1.637,-1.6368,-1.6367,-1.6343,-1.6344,-1.6345,-1.6391,0,0,-1.6348,-1.6348,0,0,0,0,0,0,0,0,-1.6447,-1.6447,-1.6431,-1.6428,-1.6424,-1.6405,-1.6424,-1.642,-1.6373,-1.6391,-1.6368,-1.6366,-1.6366,-1.6365,-1.6364,-1.639,-1.6389,-1.6348,-1.6349,-1.6349,-1.6349,0,0,0,0,0,0,0,-1.6448,-1.6448,-1.6451,-1.6431,-1.6427,-1.6412,-1.6408,-1.6423,-1.639,-1.639,-1.6385,-1.6383,-1.6364,-1.6364,-1.6363,-1.6388,-1.6348,-1.6349,-1.6349,-1.635,-1.6449,-1.6451,0,0,0,0,0,0,-1.6453,-1.6449,-1.6451,-1.645,-1.6431,-1.6413,-1.6409,-1.6413,-1.639,-1.6384,-1.6385,-1.638,-1.6363,-1.6362,-1.6362,-1.6414,-1.6349,-1.635,-1.635,-1.6447,-1.645,-1.6452,0,0,0,0,0,0,-1.6454,-1.6454,-1.6452,-1.6448,-1.6447,-1.6416,-1.642,-1.6414,-1.6414,-1.6386,-1.638,-1.6391,-1.6362,-1.6361,-1.6384,-1.6412,-1.635,-1.6351,-1.6445,-1.6448,-1.6451,-1.6518,0,0,0,0,0,0,-1.6454,-1.6455,-1.6471,-1.6449,-1.6447,-1.6474,-1.6422,-1.6415,-1.6415,-1.6409,-1.639,-1.6385,-1.636,-1.6383,-1.6385,-1.6412,-1.6352,-1.6442,-1.6446,-1.645,-1.6513,-1.6523,-1.6531,0,0,0,0,0,-1.6454,-1.6492,-1.6473,-1.6473,-1.6467,-1.6476,-1.6475,-1.6445,-1.6418,-1.6434,-1.6417,-1.6386,-1.6409,-1.6386,-1.6388,-1.6416,-1.644,-1.6445,-1.645,-1.6509,-1.6521,-1.6531,0,0,0,0,0,0,-1.6519,-1.6488,-1.6467,-1.6498,-1.649,-1.6465,-1.6486,-1.6459,-1.6459,-1.6453,-1.6416,-1.6412,-1.644,-1.643,-1.6405,-1.6458,-1.6419,-1.6425,-1.6464,-1.6475,-1.6484,-1.6486,-1.6352,0,0,0,0,0,-1.6537,-1.6546,-1.6519,-1.655,-1.6547,-1.6517,-1.652,-1.6497,-1.6487,-1.6484,-1.6468,-1.646,-1.6465,-1.647,-1.6473,-1.6511,-1.6506,-1.6531,-1.6541,-1.6548,-1.6553,-1.6573,-1.6583,-1.6468,-1.6468,-1.6468,0,0,-1.6575,-1.6559,-1.6567,-1.6562,-1.6553,-1.6564,-1.6515,-1.6528,-1.6536,-1.6486,-1.6506,-1.6495,-1.6483,-1.6514,-1.6527,-1.6507,-1.6584,-1.6554,-1.6561,-1.6562,-1.6579,-1.659,-1.6599,-1.6471,-1.647,-1.647,0,0,-1.6649,-1.6638,-1.6662,-1.6654,-1.664,-1.662,-1.6626,-1.6605,-1.6595,-1.6615,-1.6578,-1.6587,-1.6597,-1.659,-1.6589,-1.666,-1.6631,-1.6662,-1.671,-1.6729,-1.6738,-1.6746,-1.6772,-1.6781,-1.6667,-1.6667,-1.6667,0,-1.6697,-1.6711,-1.6678,-1.6693,-1.6692,-1.6647,-1.6672,-1.6666,-1.6655,-1.6655,-1.6633,-1.6644,-1.6634,-1.6662,-1.6679,-1.6679,-1.6685,-1.6664,-1.674,-1.6747,-1.6754,-1.6778,-1.6788,-1.6671,-1.6671,-1.667,-1.667,0,-1.6771,-1.6782,-1.6803,-1.6793,-1.6794,-1.6815,-1.6784,-1.679,-1.6767,-1.675,-1.6771,-1.6756,-1.6756,-1.6761,-1.6739,-1.6786,-1.6774,-1.6746,-1.6706,-1.677,-1.6791,-1.68,-1.6677,-1.6675,-1.6674,-1.6673,0,0,-1.6886,-1.6857,-1.6865,-1.686,-1.6842,-1.6849,-1.6868,-1.6867,-1.6872,-1.6866,-1.688,-1.689,-1.6864,-1.6862,-1.6839,-1.6856,-1.6913,-1.6826,-1.6825,-1.6842,-1.6964,-1.6985,-1.6996,-1.6894,-1.6896,-1.6897,-1.6965,0,-1.6955,-1.6984,-1.6954,-1.6989,-1.6998,-1.6956,-1.6971,-1.6962,-1.6947,-1.6952,-1.6935,-1.6942,-1.6907,-1.6906,-1.6921,-1.6903,-1.6937,-1.6898,-1.6907,-1.6908,-1.6911,-1.7007,-1.7029,-1.7094,-1.6973,-1.6974,-1.6975,0,-1.704,-1.7037,-1.7073,-1.7053,-1.7055,-1.707,-1.7067,-1.7073,-1.7062,-1.7049,-1.7047,-1.7019,-1.7035,-1.6996,-1.7019,-1.6993,-1.6995,-1.6987,-1.6989,-1.6988,-1.6946,-1.701,-1.7114,-1.7124,-1.6989,-1.6987,-1.6987,0,-1.712,-1.7125,-1.7147,-1.7144,-1.7121,-1.7132,-1.7123,-1.711,-1.7111,-1.7108,-1.7109,-1.7108,-1.7108,-1.7109,-1.7081,-1.7056,-1.7107,-1.7066,-1.7097,-1.7098,-1.711,-1.711,-1.7217,-1.7112,-1.7112,-1.7112,-1.7112,0,-1.7201,-1.7224,-1.7183,-1.7196,-1.7221,-1.7187,-1.7213,-1.72,-1.7188,-1.7199,-1.7162,-1.7172,-1.7136,-1.7143,-1.7122,-1.7143,-1.7144,-1.7134,-1.7128,-1.7137,-1.7139,-1.7138,-1.7133,-1.7114,-1.7114,-1.7113,-1.7113,0,-1.7294,-1.7267,-1.7288,-1.7264,-1.7259,-1.7278,-1.7258,-1.7269,-1.7251,-1.7265,-1.7266,-1.7237,-1.7243,-1.7216,-1.7218,-1.7204,-1.7236,-1.7223,-1.724,-1.7236,-1.7268,-1.7266,-1.7379,-1.7392,-1.7279,-1.728,-1.7281,0,-1.7347,-1.7364,-1.7342,-1.7346,-1.7338,-1.7345,-1.7346,-1.7313,-1.7316,-1.7304,-1.7317,-1.732,-1.7321,-1.7333,-1.7313,-1.7314,-1.73,-1.7339,-1.73,-1.7308,-1.73,-1.7299,-1.7301,-1.7348,-1.7349,-1.735,-1.7351,0,-1.7444,-1.743,-1.7432,-1.743,-1.7432,-1.7429,-1.7423,-1.7429,-1.7393,-1.7398,-1.7403,-1.7404,-1.7405,-1.7409,-1.7406,-1.7396,-1.7368,-1.7364,-1.7371,-1.738,-1.7389,-1.7385,-1.7262,-1.7361,-1.736,-1.736,-1.7359,-1.7359,-1.7519,-1.7532,-1.7518,-1.7522,-1.7514,-1.751,-1.7519,-1.7502,-1.7506,-1.7504,-1.7484,-1.7493,-1.7482,-1.7474,-1.7468,-1.7475,-1.7456,-1.7467,-1.7469,-1.7473,-1.7478,-1.7389,-1.7474,-1.7474,-1.7474,-1.7473,-1.7473,0,-1.7614,-1.7603,-1.7607,-1.76,-1.7603,-1.7575,-1.7567,-1.7572,-1.758,-1.7572,-1.7573,-1.7579,-1.7582,-1.7562,-1.7562,-1.7572,-1.7559,-1.7573,-1.7572,-1.757,-1.7495,-1.7488,-1.7584,-1.7584,-1.7584,-1.7584,-1.7584,-1.7583,-1.7664,-1.7684,-1.7668,-1.7684,-1.7673,-1.7681,-1.7679,-1.7675,-1.7668,-1.7676,-1.7678,-1.7665,-1.7652,-1.7651,-1.7652,-1.7646,-1.7648,-1.7667,-1.7657,-1.7586,-1.7576,-1.7565,-1.7559,-1.7668,-1.7668,-1.7731,-1.7732,-1.7732]},{"header":{"parameterUnit":"m.s-1","parameterCategory":1,"la1":30.2991,"la2":30.254,"lo1":-89.0895,"lo2":-89.0444,"dy":0.0017,"dx":0.0017,"nx":28,"ny":28,"refTime":"2023-09-01T09:00:00:Z","depth":0,"parameterNumber":3,"parameterNumberName":"V-component_of_WINDS"},"data":[0,0,0,0,0,0,0,0,0,0,0,0,0,0,0,0,0,0,0,0,0,0,0,0,0,0,0,0,0,0,0,0,0,0,0,0,0,0,0,0,0,0,0,0,0,0,0,0,0,0,0,0,0,0,0,0,0,0,-0.8974,-0.8973,0,-0.8907,-0.8907,-0.8906,-0.8848,-0.8847,-0.8846,-0.8846,-0.8774,-0.8773,-0.8771,0,0,0,0,0,0,0,0,0,0,0,0,0,-0.9047,-0.9046,-0.8974,-0.8973,-0.8972,-0.8908,-0.8907,-0.8906,-0.8848,-0.8847,-0.8846,-0.8845,-0.8774,-0.8773,-0.8771,0,0,0,0,0,0,0,0,0,0,0,0,0,-0.9001,-0.9046,-0.8974,-0.8936,-0.8932,-0.8908,-0.8907,-0.8905,-0.8848,-0.8847,-0.8846,-0.8845,-0.8775,-0.8773,-0.8771,-0.8779,0,0,-0.8765,-0.8764,0,0,0,0,0,0,0,0,-0.9004,-0.8999,-0.8942,-0.8938,-0.8934,-0.8885,-0.8906,-0.8863,-0.8848,-0.888,-0.8846,-0.8845,-0.8811,-0.8806,-0.8796,-0.8775,-0.8772,-0.8765,-0.8764,-0.8763,-0.8762,0,0,0,0,0,0,0,-0.9007,-0.9001,-0.8947,-0.8941,-0.8936,-0.8921,-0.8913,-0.8898,-0.8852,-0.8877,-0.8872,-0.8866,-0.8809,-0.8798,-0.8794,-0.8771,-0.8765,-0.8763,-0.8762,-0.8761,-0.8753,-0.8754,0,0,0,0,0,0,-0.9017,-0.9004,-0.895,-0.8946,-0.8967,-0.892,-0.8912,-0.8901,-0.8852,-0.8843,-0.8866,-0.8863,-0.8802,-0.8796,-0.8791,-0.8797,-0.8763,-0.8761,-0.876,-0.8752,-0.8753,-0.8754,0,0,0,0,0,0,-0.9019,-0.9013,-0.8952,-0.8974,-0.8965,-0.892,-0.8909,-0.8901,-0.889,-0.8844,-0.8835,-0.8864,-0.8801,-0.8794,-0.8782,-0.8793,-0.876,-0.8758,-0.8751,-0.8752,-0.8754,-0.8808,0,0,0,0,0,0,-0.9021,-0.9014,-0.9017,-0.8974,-0.8964,-0.8946,-0.891,-0.89,-0.8887,-0.8882,-0.8839,-0.8831,-0.8799,-0.8786,-0.878,-0.879,-0.8757,-0.875,-0.8751,-0.8753,-0.8805,-0.8811,-0.8817,0,0,0,0,0,-0.9024,-0.9034,-0.9018,-0.9011,-0.8968,-0.8947,-0.8941,-0.8905,-0.8888,-0.8891,-0.8861,-0.8833,-0.8793,-0.8785,-0.8779,-0.8788,-0.8749,-0.8751,-0.8753,-0.8803,-0.881,-0.8817,0,0,0,0,0,0,-0.9078,-0.9028,-0.9009,-0.9006,-0.8981,-0.8937,-0.8939,-0.8914,-0.8893,-0.8889,-0.8844,-0.8835,-0.8828,-0.8807,-0.8799,-0.8792,-0.8767,-0.8768,-0.8807,-0.8814,-0.8819,-0.8825,-0.8755,0,0,0,0,0,-0.9091,-0.9079,-0.9035,-0.9037,-0.9026,-0.8985,-0.8974,-0.8949,-0.8921,-0.891,-0.8879,-0.8853,-0.8834,-0.8822,-0.8803,-0.8802,-0.8791,-0.8805,-0.881,-0.8815,-0.8817,-0.8814,-0.882,-0.8761,-0.8761,-0.8761,0,0,-0.9115,-0.9086,-0.9081,-0.9047,-0.9025,-0.9013,-0.8976,-0.8965,-0.8956,-0.8908,-0.8896,-0.8872,-0.8839,-0.8833,-0.8829,-0.8815,-0.883,-0.8818,-0.8822,-0.8821,-0.8817,-0.8822,-0.8827,-0.8762,-0.8762,-0.8762,0,0,-0.9153,-0.913,-0.9129,-0.9108,-0.9075,-0.9048,-0.9048,-0.9007,-0.899,-0.8977,-0.8941,-0.8928,-0.8897,-0.8875,-0.8859,-0.8889,-0.8862,-0.8883,-0.8913,-0.8911,-0.8916,-0.8919,-0.893,-0.8934,-0.8885,-0.8885,-0.8885,0,-0.9187,-0.9169,-0.9131,-0.9123,-0.9109,-0.9066,-0.9064,-0.9044,-0.9006,-0.8997,-0.8982,-0.8942,-0.8917,-0.8905,-0.8912,-0.8901,-0.8898,-0.8888,-0.8918,-0.8922,-0.8925,-0.8934,-0.8938,-0.8888,-0.8887,-0.8887,-0.8887,0,-0.9212,-0.92,-0.9203,-0.9169,-0.9155,-0.915,-0.911,-0.91,-0.9076,-0.905,-0.9037,-0.9004,-0.8977,-0.8972,-0.8948,-0.8957,-0.8949,-0.8927,-0.89,-0.8934,-0.8942,-0.8945,-0.8892,-0.8891,-0.889,-0.8889,0,0,-0.9283,-0.9229,-0.9231,-0.9214,-0.9175,-0.9164,-0.9156,-0.9131,-0.9123,-0.9098,-0.909,-0.9065,-0.9044,-0.9026,-0.8999,-0.8997,-0.9022,-0.8975,-0.8973,-0.8985,-0.9029,-0.9046,-0.9051,-0.9004,-0.9004,-0.9005,-0.9032,0,-0.9315,-0.9301,-0.9267,-0.9262,-0.925,-0.9209,-0.9202,-0.9176,-0.9151,-0.9136,-0.9108,-0.9091,-0.9065,-0.9054,-0.905,-0.902,-0.903,-0.9017,-0.8995,-0.8994,-0.9005,-0.9055,-0.9074,-0.9101,-0.9035,-0.9035,-0.9036,0,-0.9351,-0.933,-0.9325,-0.9286,-0.9279,-0.9274,-0.9248,-0.9234,-0.9204,-0.9186,-0.9166,-0.9136,-0.9124,-0.91,-0.9083,-0.9075,-0.9063,-0.9047,-0.9047,-0.9043,-0.9017,-0.9054,-0.9109,-0.9113,-0.904,-0.904,-0.9039,0,-0.9404,-0.9374,-0.9367,-0.9354,-0.9308,-0.9306,-0.9286,-0.9255,-0.9242,-0.9218,-0.9209,-0.9184,-0.917,-0.9151,-0.9114,-0.91,-0.9101,-0.9073,-0.9085,-0.9086,-0.9087,-0.9088,-0.9142,-0.9079,-0.9079,-0.9079,-0.9079,0,-0.9443,-0.9442,-0.939,-0.9386,-0.9382,-0.9342,-0.9339,-0.9316,-0.9288,-0.9277,-0.9239,-0.923,-0.9182,-0.9166,-0.9137,-0.9127,-0.9121,-0.9105,-0.9098,-0.9109,-0.9111,-0.9101,-0.9098,-0.908,-0.908,-0.908,-0.908,0,-0.9502,-0.9468,-0.9457,-0.9415,-0.9404,-0.9404,-0.9367,-0.936,-0.9333,-0.932,-0.9314,-0.9271,-0.9251,-0.9213,-0.9181,-0.9161,-0.9157,-0.9144,-0.9168,-0.9164,-0.9177,-0.9177,-0.9227,-0.9232,-0.9167,-0.9167,-0.9168,0,-0.953,-0.9528,-0.9486,-0.9477,-0.9459,-0.9445,-0.9431,-0.9391,-0.9378,-0.9343,-0.9341,-0.9318,-0.9298,-0.9267,-0.9232,-0.9207,-0.9193,-0.9212,-0.9189,-0.92,-0.9193,-0.9194,-0.9193,-0.9218,-0.9219,-0.922,-0.922,0,-0.9583,-0.9566,-0.9549,-0.9526,-0.9512,-0.9491,-0.9468,-0.9462,-0.9417,-0.9404,-0.9384,-0.9368,-0.9336,-0.9314,-0.9284,-0.9262,-0.9233,-0.9228,-0.9229,-0.9241,-0.9255,-0.9248,-0.9183,-0.9227,-0.9226,-0.9226,-0.9225,-0.9225,-0.9627,-0.9623,-0.9593,-0.9575,-0.9554,-0.9534,-0.9526,-0.9498,-0.9481,-0.9453,-0.943,-0.9411,-0.9379,-0.9337,-0.9317,-0.9301,-0.9287,-0.9289,-0.9289,-0.929,-0.9295,-0.9258,-0.9295,-0.9295,-0.9294,-0.9294,-0.9294,0,-0.9678,-0.9657,-0.9641,-0.9611,-0.9597,-0.9572,-0.9545,-0.9534,-0.9519,-0.9493,-0.9474,-0.945,-0.9427,-0.9391,-0.9365,-0.9359,-0.9345,-0.9354,-0.9354,-0.9349,-0.9309,-0.931,-0.9365,-0.9365,-0.9365,-0.9365,-0.9365,-0.9365,-0.9704,-0.9696,-0.9675,-0.9656,-0.9634,-0.9617,-0.9604,-0.9584,-0.9563,-0.9538,-0.952,-0.9497,-0.9466,-0.9437,-0.9415,-0.9405,-0.9397,-0.941,-0.9396,-0.9359,-0.9352,-0.9346,-0.9347,-0.9409,-0.9409,-0.9437,-0.9437,-0.9438]}]]